Regional Weather Roundup
Issued by NWS Kansas City/Pleasant Hill, MO

Home | Current Version | Previous Version | Graphics & Text | Print | Product List | Glossary Off
Versions: 1 2 3 4 5 6 7 8 9 10 11 12 13 14 15 16 17 18 19 20 21 22 23 24 25 26 27 28 29 30 31 32 33 34 35 36 37 38 39 40 41 42 43 44 45 46 47 48 49 50

008
ASUS43 KEAX 032010
RWREAX

WEATHER ROUNDUP FOR EASTERN KANSAS AND NORTHWEST MISSOURI
NATIONAL WEATHER SERVICE KANSAS CITY/PLEASANT HILL MO
300 PM CDT TUE MAY 03 2016

KSZ040-057-103>105-MOZ028-029-037-043-032100-
...KANSAS CITY METROPOLITAN AREA...

CITY           SKY/WX    TMP DP  RH WIND       PRES   REMARKS
K.C. INTL      MOSUNNY   66  39  37 SW9       30.02F
K.C. DOWNTOWN  SUNNY     67  40  37 VRB6      30.01F
LEES SUMMIT    MOSUNNY   67  41  38 NW5       30.03F
OLATHE - IXD   MOSUNNY   67  41  38 W8        30.03F
OLATHE - OJC   MOSUNNY   66  39  37 VRB6G18   30.03F
LAWRENCE       MOSUNNY   68  43  40 NW6       30.02F

$$

MOZ001>008-011>017-020>025-030>033-038>040-044>046-053-054-032100-
...NORTHERN AND CENTRAL MISSOURI...

CITY           SKY/WX    TMP DP  RH WIND       PRES   REMARKS
ST. JOSEPH     MOSUNNY   69  41  36 W14       30.01F
MOSBY          PTCLDY    66  37  34 W7        30.02F
WARRENSBURG    MOSUNNY   68  37  32 W6        30.02F
WHITEMAN AFB   PTSUNNY   67  43  42 NW6       30.01F
CLINTON        PTSUNNY   66  45  45 NW3       30.04S
SEDALIA        MOSUNNY   65  42  43 NW8       30.03F
WARSAW         NOT AVBL
CHILLICOTHE      N/A     67  44  43 NW8       30.00F
KIRKSVILLE     PTSUNNY   65  39  38 W10       29.98F

$$

MOZ041-047>049-056>058-063>065-088>090-097-032100-
...EASTERN AND SOUTHERN MISSOURI...

CITY           SKY/WX    TMP DP  RH WIND       PRES   REMARKS
ST. LOUIS INTL PTSUNNY   64  41  42 NW12      29.99F
SPIRIT OF STL  CLOUDY    63  43  48 VRB6      29.99F
COLUMBIA       PTSUNNY   63  43  48 NW8       30.01F
JEFFERSON CITY PTSUNNY   65  42  43 W10       30.01F
ROLLA          PTSUNNY   60  44  55 NW9       29.99F
OSAGE BEACH    PTSUNNY   64  37  36 NW6       30.02F
SPRINGFIELD    PTSUNNY   64  40  41 N10       30.04S
BRANSON        PTSUNNY   64  37  36 NW8G16    30.05F
JOPLIN         MOSUNNY   67  44  43 N6        30.06F
WEST PLAINS    MOSUNNY   66  41  40 W8        30.02F

$$

IAZ060-094-KSZ022-034>040-054-083-096-NEZ052-066-093-032100-
...KANSAS...SOUTHEAST NEBRASKA AND IOWA...

CITY           SKY/WX    TMP DP  RH WIND       PRES   REMARKS
TOPEKA         SUNNY     69  43  38 W7        30.02F
MANHATTAN      MOSUNNY   72  42  34 SW6       30.01F
EMPORIA        PTSUNNY   70  43  37 SW12      30.02F
CHANUTE        PTSUNNY   66  42  41 S7        30.05F
WICHITA        MOSUNNY   70  43  37 SW9       30.03F
OMAHA          PTSUNNY   70  41  34 W13       29.98F
LINCOLN        MOSUNNY   68  40  35 SW6       30.01F
FALLS CITY     MOSUNNY   68  43  40 W10G18    30.00F
LAMONI         PTSUNNY   63  44  50 W16G22    29.98F
DES MOINES     PTSUNNY   68  37  32 W17G25    29.94F

$$





USA.gov is the U.S. government's official web portal to all federal, state and local government web resources and services.